owner,sensor,date,latitude,longitude,vertical_datum,wind_speed,wind_to_direction,wind_speed_of_gust,qcFlag 
DISL,ioos:station:DISL:DISL:1,2008-03-01T00:00:00Z,30.2513,-88.0778,9.68,5.36,137.7,-9999.0,'1111122,1111122,1111122' 
DISL,ioos:station:DISL:DISL:1,2008-03-01T00:30:00Z,30.2513,-88.0778,9.68,4.56,141.5,-9999.0,'1111122,1111122,1111122' 
DISL,ioos:station:DISL:DISL:1,2008-03-01T01:00:00Z,30.2513,-88.0778,9.68,5.02,142.5,-9999.0,'1111122,1111122,1111122' 
DISL,ioos:station:DISL:DISL:1,2008-03-01T01:30:00Z,30.2513,-88.0778,9.68,4.91,132.1,-9999.0,'1111122,1111122,1111122' 
DISL,ioos:station:DISL:DISL:1,2008-03-01T02:00:00Z,30.2513,-88.0778,9.68,4.02,136.5,-9999.0,'1111122,1111122,1111122' 
DISL,ioos:station:DISL:DISL:1,2008-03-01T02:30:00Z,30.2513,-88.0778,9.68,3.81,134.5,-9999.0,'1111122,1111122,1111122' 
DISL,ioos:station:DISL:DISL:1,2008-03-01T03:00:00Z,30.2513,-88.0778,9.68,3.55,135.8,-9999.0,'1111122,1111122,1111122' 
DISL,ioos:station:DISL:DISL:1,2008-03-01T03:30:00Z,30.2513,-88.0778,9.68,3.73,148.3,-9999.0,'1111122,1111122,1111122' 
DISL,ioos:station:DISL:DISL:1,2008-03-01T04:00:00Z,30.2513,-88.0778,9.68,2.78,154.0,-9999.0,'1111122,1111122,1111122' 
DISL,ioos:station:DISL:DISL:1,2008-03-01T04:30:00Z,30.2513,-88.0778,9.68,3.09,150.1,-9999.0,'1111122,1111122,1111122' 
DISL,ioos:station:DISL:DISL:1,2008-03-01T05:00:00Z,30.2513,-88.0778,9.68,2.79,153.5,-9999.0,'1111122,1111122,1111122' 
DISL,ioos:station:DISL:DISL:1,2008-03-01T05:30:00Z,30.2513,-88.0778,9.68,1.75,162.0,-9999.0,'1111122,1111122,1111122' 
DISL,ioos:station:DISL:DISL:1,2008-03-01T06:00:00Z,30.2513,-88.0778,9.68,0.3,171.9,-9999.0,'1111122,1111122,1111122' 
DISL,ioos:station:DISL:DISL:1,2008-03-01T06:30:00Z,30.2513,-88.0778,9.68,0.28,347.3,-9999.0,'1111122,1111122,1111122' 
DISL,ioos:station:DISL:DISL:1,2008-03-01T07:00:00Z,30.2513,-88.0778,9.68,0.38,60.28,-9999.0,'1111122,1111122,1111122' 
DISL,ioos:station:DISL:DISL:1,2008-03-01T07:30:00Z,30.2513,-88.0778,9.68,0.06,37.56,-9999.0,'1111122,1111122,1111122' 
DISL,ioos:station:DISL:DISL:1,2008-03-01T08:00:00Z,30.2513,-88.0778,9.68,0.09,106.0,-9999.0,'1111122,1111122,1111122' 
DISL,ioos:station:DISL:DISL:1,2008-03-01T08:30:00Z,30.2513,-88.0778,9.68,0.0,0.0,-9999.0,'1114422,1114422,1111122' 
DISL,ioos:station:DISL:DISL:1,2008-03-01T09:00:00Z,30.2513,-88.0778,9.68,0.03,285.4,-9999.0,'1111122,1111122,1111122' 
DISL,ioos:station:DISL:DISL:1,2008-03-01T09:30:00Z,30.2513,-88.0778,9.68,0.32,184.4,-9999.0,'1111122,1111122,1111122' 
DISL,ioos:station:DISL:DISL:1,2008-03-01T10:00:00Z,30.2513,-88.0778,9.68,0.22,175.3,-9999.0,'1111122,1111122,1111122' 
DISL,ioos:station:DISL:DISL:1,2008-03-01T10:30:00Z,30.2513,-88.0778,9.68,0.0,256.3,-9999.0,'1114422,1111122,1111122' 
DISL,ioos:station:DISL:DISL:1,2008-03-01T11:00:00Z,30.2513,-88.0778,9.68,0.54,199.6,-9999.0,'1111122,1111122,1111122' 
DISL,ioos:station:DISL:DISL:1,2008-03-01T11:30:00Z,30.2513,-88.0778,9.68,0.77,38.46,-9999.0,'1111122,1111122,1111122' 
DISL,ioos:station:DISL:DISL:1,2008-03-01T12:00:00Z,30.2513,-88.0778,9.68,0.99,358.6,-9999.0,'1111122,1111122,1111122' 
DISL,ioos:station:DISL:DISL:1,2008-03-01T12:30:00Z,30.2513,-88.0778,9.68,1.41,39.55,-9999.0,'1111122,1111122,1111122' 
DISL,ioos:station:DISL:DISL:1,2008-03-01T13:00:00Z,30.2513,-88.0778,9.68,1.28,63.11,-9999.0,'1111122,1111122,1111122' 
DISL,ioos:station:DISL:DISL:1,2008-03-01T13:30:00Z,30.2513,-88.0778,9.68,0.85,30.89,-9999.0,'1111122,1111122,1111122' 
DISL,ioos:station:DISL:DISL:1,2008-03-01T14:00:00Z,30.2513,-88.0778,9.68,1.97,7.17,-9999.0,'1111122,1111122,1111122' 
DISL,ioos:station:DISL:DISL:1,2008-03-01T14:30:00Z,30.2513,-88.0778,9.68,2.54,1.892,-9999.0,'1111122,1111122,1111122' 
DISL,ioos:station:DISL:DISL:1,2008-03-01T15:00:00Z,30.2513,-88.0778,9.68,2.9,2.121,-9999.0,'1111122,1111122,1111122' 
DISL,ioos:station:DISL:DISL:1,2008-03-01T15:30:00Z,30.2513,-88.0778,9.68,2.87,7.3,-9999.0,'1111122,1111122,1111122' 
DISL,ioos:station:DISL:DISL:1,2008-03-01T16:00:00Z,30.2513,-88.0778,9.68,1.9,17.45,-9999.0,'1111122,1111122,1111122' 
DISL,ioos:station:DISL:DISL:1,2008-03-01T16:30:00Z,30.2513,-88.0778,9.68,1.17,39.79,-9999.0,'1111122,1111122,1111122' 
DISL,ioos:station:DISL:DISL:1,2008-03-01T17:00:00Z,30.2513,-88.0778,9.68,1.06,74.2,-9999.0,'1111122,1111122,1111122' 
DISL,ioos:station:DISL:DISL:1,2008-03-01T17:30:00Z,30.2513,-88.0778,9.68,1.28,98.7,-9999.0,'1111122,1111122,1111122' 
DISL,ioos:station:DISL:DISL:1,2008-03-01T18:00:00Z,30.2513,-88.0778,9.68,1.83,120.9,-9999.0,'1111122,1111122,1111122' 
DISL,ioos:station:DISL:DISL:1,2008-03-01T18:30:00Z,30.2513,-88.0778,9.68,1.8,109.7,-9999.0,'1111122,1111122,1111122' 
DISL,ioos:station:DISL:DISL:1,2008-03-01T19:00:00Z,30.2513,-88.0778,9.68,1.16,103.0,-9999.0,'1111122,1111122,1111122' 
DISL,ioos:station:DISL:DISL:1,2008-03-01T19:30:00Z,30.2513,-88.0778,9.68,0.78,102.0,-9999.0,'1111122,1111122,1111122' 
DISL,ioos:station:DISL:DISL:1,2008-03-01T20:00:00Z,30.2513,-88.0778,9.68,0.36,65.14,-9999.0,'1111122,1111122,1111122' 
DISL,ioos:station:DISL:DISL:1,2008-03-01T20:30:00Z,30.2513,-88.0778,9.68,2.33,194.0,-9999.0,'1111122,1111122,1111122' 
DISL,ioos:station:DISL:DISL:1,2008-03-01T21:00:00Z,30.2513,-88.0778,9.68,2.12,201.5,-9999.0,'1111122,1111122,1111122' 
DISL,ioos:station:DISL:DISL:1,2008-03-01T21:30:00Z,30.2513,-88.0778,9.68,2.03,188.4,-9999.0,'1111122,1111122,1111122' 
DISL,ioos:station:DISL:DISL:1,2008-03-01T22:00:00Z,30.2513,-88.0778,9.68,1.96,189.0,-9999.0,'1111122,1111122,1111122' 
DISL,ioos:station:DISL:DISL:1,2008-03-01T22:30:00Z,30.2513,-88.0778,9.68,2.15,192.6,-9999.0,'1111122,1111122,1111122' 
DISL,ioos:station:DISL:DISL:1,2008-03-01T23:00:00Z,30.2513,-88.0778,9.68,1.97,188.3,-9999.0,'1111122,1111122,1111122' 
DISL,ioos:station:DISL:DISL:1,2008-03-01T23:30:00Z,30.2513,-88.0778,9.68,2.01,201.7,-9999.0,'1111122,1111122,1111122' 
DISL,ioos:station:DISL:DISL:1,2008-03-02T00:00:00Z,30.2513,-88.0778,9.68,1.73,200.2,-9999.0,'1111122,1111122,1111122' 
DISL,ioos:station:DISL:DISL:1,2008-03-02T00:30:00Z,30.2513,-88.0778,9.68,1.82,198.3,-9999.0,'1111122,1111122,1111122' 
DISL,ioos:station:DISL:DISL:1,2008-03-02T01:00:00Z,30.2513,-88.0778,9.68,1.57,187.2,-9999.0,'1111122,1111122,1111122' 
DISL,ioos:station:DISL:DISL:1,2008-03-02T01:30:00Z,30.2513,-88.0778,9.68,1.51,185.9,-9999.0,'1111122,1111122,1111122' 
DISL,ioos:station:DISL:DISL:1,2008-03-02T02:00:00Z,30.2513,-88.0778,9.68,0.86,211.2,-9999.0,'1111122,1111122,1111122' 
DISL,ioos:station:DISL:DISL:1,2008-03-02T02:30:00Z,30.2513,-88.0778,9.68,1.28,209.1,-9999.0,'1111122,1111122,1111122' 
DISL,ioos:station:DISL:DISL:1,2008-03-02T03:00:00Z,30.2513,-88.0778,9.68,1.32,214.2,-9999.0,'1111122,1111122,1111122' 
DISL,ioos:station:DISL:DISL:1,2008-03-02T03:30:00Z,30.2513,-88.0778,9.68,1.24,185.3,-9999.0,'1111122,1111122,1111122' 
DISL,ioos:station:DISL:DISL:1,2008-03-02T04:00:00Z,30.2513,-88.0778,9.68,0.66,214.5,-9999.0,'1111122,1111122,1111122' 
DISL,ioos:station:DISL:DISL:1,2008-03-02T04:30:00Z,30.2513,-88.0778,9.68,1.08,184.6,-9999.0,'1111122,1111122,1111122' 
DISL,ioos:station:DISL:DISL:1,2008-03-02T05:00:00Z,30.2513,-88.0778,9.68,1.17,161.7,-9999.0,'1111122,1111122,1111122' 
DISL,ioos:station:DISL:DISL:1,2008-03-02T05:30:00Z,30.2513,-88.0778,9.68,0.88,174.4,-9999.0,'1111122,1111122,1111122' 
DISL,ioos:station:DISL:DISL:1,2008-03-02T06:00:00Z,30.2513,-88.0778,9.68,0.61,186.7,-9999.0,'1111122,1111122,1111122' 
DISL,ioos:station:DISL:DISL:1,2008-03-02T06:30:00Z,30.2513,-88.0778,9.68,0.42,86.5,-9999.0,'1111122,1111122,1111122' 
DISL,ioos:station:DISL:DISL:1,2008-03-02T07:00:00Z,30.2513,-88.0778,9.68,0.49,133.2,-9999.0,'1111122,1111122,1111122' 
DISL,ioos:station:DISL:DISL:1,2008-03-02T07:30:00Z,30.2513,-88.0778,9.68,0.57,172.3,-9999.0,'1111122,1111122,1111122' 
DISL,ioos:station:DISL:DISL:1,2008-03-02T08:00:00Z,30.2513,-88.0778,9.68,0.13,180.6,-9999.0,'1111122,1111122,1111122' 
DISL,ioos:station:DISL:DISL:1,2008-03-02T08:30:00Z,30.2513,-88.0778,9.68,0.19,200.0,-9999.0,'1111122,1111122,1111122' 
DISL,ioos:station:DISL:DISL:1,2008-03-02T09:00:00Z,30.2513,-88.0778,9.68,0.0,0.0,-9999.0,'1114422,1114422,1111122' 
DISL,ioos:station:DISL:DISL:1,2008-03-02T09:30:00Z,30.2513,-88.0778,9.68,0.0,0.0,-9999.0,'1114422,1114422,1111122' 
DISL,ioos:station:DISL:DISL:1,2008-03-02T10:00:00Z,30.2513,-88.0778,9.68,0.9,97.0,-9999.0,'1111122,1111122,1111122' 
DISL,ioos:station:DISL:DISL:1,2008-03-02T10:30:00Z,30.2513,-88.0778,9.68,0.1,103.6,-9999.0,'1111122,1111122,1111122' 
DISL,ioos:station:DISL:DISL:1,2008-03-02T11:00:00Z,30.2513,-88.0778,9.68,0.73,84.1,-9999.0,'1111122,1111122,1111122' 
DISL,ioos:station:DISL:DISL:1,2008-03-02T11:30:00Z,30.2513,-88.0778,9.68,0.66,72.1,-9999.0,'1111122,1111122,1111122' 
DISL,ioos:station:DISL:DISL:1,2008-03-02T12:00:00Z,30.2513,-88.0778,9.68,2.0,79.3,-9999.0,'1111122,1111122,1111122' 
DISL,ioos:station:DISL:DISL:1,2008-03-02T12:30:00Z,30.2513,-88.0778,9.68,2.99,86.8,-9999.0,'1111122,1111122,1111122' 
DISL,ioos:station:DISL:DISL:1,2008-03-02T13:00:00Z,30.2513,-88.0778,9.68,3.72,78.8,-9999.0,'1111122,1111122,1111122' 
DISL,ioos:station:DISL:DISL:1,2008-03-02T13:30:00Z,30.2513,-88.0778,9.68,3.41,81.0,-9999.0,'1111122,1111122,1111122' 
DISL,ioos:station:DISL:DISL:1,2008-03-02T14:00:00Z,30.2513,-88.0778,9.68,3.9,87.5,-9999.0,'1111122,1111122,1111122' 
DISL,ioos:station:DISL:DISL:1,2008-03-02T14:30:00Z,30.2513,-88.0778,9.68,3.57,90.5,-9999.0,'1111122,1111122,1111122' 
DISL,ioos:station:DISL:DISL:1,2008-03-02T15:00:00Z,30.2513,-88.0778,9.68,3.6,76.9,-9999.0,'1111122,1111122,1111122' 
DISL,ioos:station:DISL:DISL:1,2008-03-02T15:30:00Z,30.2513,-88.0778,9.68,3.28,78.4,-9999.0,'1111122,1111122,1111122' 
DISL,ioos:station:DISL:DISL:1,2008-03-02T16:00:00Z,30.2513,-88.0778,9.68,2.95,79.7,-9999.0,'1111122,1111122,1111122' 
DISL,ioos:station:DISL:DISL:1,2008-03-02T16:30:00Z,30.2513,-88.0778,9.68,3.04,85.1,-9999.0,'1111122,1111122,1111122' 
DISL,ioos:station:DISL:DISL:1,2008-03-02T17:00:00Z,30.2513,-88.0778,9.68,4.23,108.1,-9999.0,'1111122,1111122,1111122' 
DISL,ioos:station:DISL:DISL:1,2008-03-02T17:30:00Z,30.2513,-88.0778,9.68,4.16,119.3,-9999.0,'1111122,1111122,1111122' 
DISL,ioos:station:DISL:DISL:1,2008-03-02T18:00:00Z,30.2513,-88.0778,9.68,4.93,120.8,-9999.0,'1111122,1111122,1111122' 
DISL,ioos:station:DISL:DISL:1,2008-03-02T18:30:00Z,30.2513,-88.0778,9.68,6.47,123.1,-9999.0,'1111122,1111122,1111122' 
DISL,ioos:station:DISL:DISL:1,2008-03-02T19:00:00Z,30.2513,-88.0778,9.68,5.74,122.4,-9999.0,'1111122,1111122,1111122' 
DISL,ioos:station:DISL:DISL:1,2008-03-02T19:30:00Z,30.2513,-88.0778,9.68,5.56,127.8,-9999.0,'1111122,1111122,1111122' 
DISL,ioos:station:DISL:DISL:1,2008-03-02T20:00:00Z,30.2513,-88.0778,9.68,4.78,116.4,-9999.0,'1111122,1111122,1111122' 
DISL,ioos:station:DISL:DISL:1,2008-03-02T20:30:00Z,30.2513,-88.0778,9.68,5.86,116.2,-9999.0,'1111122,1111122,1111122' 
DISL,ioos:station:DISL:DISL:1,2008-03-02T21:00:00Z,30.2513,-88.0778,9.68,5.94,113.4,-9999.0,'1111122,1111122,1111122' 
DISL,ioos:station:DISL:DISL:1,2008-03-02T21:30:00Z,30.2513,-88.0778,9.68,6.65,113.2,-9999.0,'1111122,1111122,1111122' 
DISL,ioos:station:DISL:DISL:1,2008-03-02T22:00:00Z,30.2513,-88.0778,9.68,6.66,113.8,-9999.0,'1111122,1111122,1111122' 
DISL,ioos:station:DISL:DISL:1,2008-03-02T22:30:00Z,30.2513,-88.0778,9.68,6.19,117.6,-9999.0,'1111122,1111122,1111122' 
DISL,ioos:station:DISL:DISL:1,2008-03-02T23:00:00Z,30.2513,-88.0778,9.68,6.29,115.3,-9999.0,'1111122,1111122,1111122' 
DISL,ioos:station:DISL:DISL:1,2008-03-02T23:30:00Z,30.2513,-88.0778,9.68,4.67,119.6,-9999.0,'1111122,1111122,1111122' 
DISL,ioos:station:DISL:DISL:1,2008-03-03T00:00:00Z,30.2513,-88.0778,9.68,4.45,124.6,-9999.0,'1111122,1111122,1111122' 
DISL,ioos:station:DISL:DISL:1,2008-03-03T00:30:00Z,30.2513,-88.0778,9.68,4.18,123.1,-9999.0,'1111122,1111122,1111122' 
DISL,ioos:station:DISL:DISL:1,2008-03-03T01:00:00Z,30.2513,-88.0778,9.68,4.66,123.9,-9999.0,'1111122,1111122,1111122' 
DISL,ioos:station:DISL:DISL:1,2008-03-03T01:30:00Z,30.2513,-88.0778,9.68,5.54,131.5,-9999.0,'1111122,1111122,1111122' 
DISL,ioos:station:DISL:DISL:1,2008-03-03T02:00:00Z,30.2513,-88.0778,9.68,5.73,123.2,-9999.0,'1111122,1111122,1111122' 
DISL,ioos:station:DISL:DISL:1,2008-03-03T02:30:00Z,30.2513,-88.0778,9.68,6.11,126.4,-9999.0,'1111122,1111122,1111122' 
DISL,ioos:station:DISL:DISL:1,2008-03-03T03:00:00Z,30.2513,-88.0778,9.68,6.01,129.7,-9999.0,'1111122,1111122,1111122' 
DISL,ioos:station:DISL:DISL:1,2008-03-03T03:30:00Z,30.2513,-88.0778,9.68,5.83,124.2,-9999.0,'1111122,1111122,1111122' 
DISL,ioos:station:DISL:DISL:1,2008-03-03T04:00:00Z,30.2513,-88.0778,9.68,5.53,130.1,-9999.0,'1111122,1111122,1111122' 
DISL,ioos:station:DISL:DISL:1,2008-03-03T04:30:00Z,30.2513,-88.0778,9.68,4.76,133.1,-9999.0,'1111122,1111122,1111122' 
DISL,ioos:station:DISL:DISL:1,2008-03-03T05:00:00Z,30.2513,-88.0778,9.68,4.72,133.0,-9999.0,'1111122,1111122,1111122' 
DISL,ioos:station:DISL:DISL:1,2008-03-03T05:30:00Z,30.2513,-88.0778,9.68,5.11,128.5,-9999.0,'1111122,1111122,1111122' 
DISL,ioos:station:DISL:DISL:1,2008-03-03T06:00:00Z,30.2513,-88.0778,9.68,4.7,133.5,-9999.0,'1111122,1111122,1111122' 
DISL,ioos:station:DISL:DISL:1,2008-03-03T06:30:00Z,30.2513,-88.0778,9.68,4.97,133.0,-9999.0,'1111122,1111122,1111122' 
DISL,ioos:station:DISL:DISL:1,2008-03-03T07:00:00Z,30.2513,-88.0778,9.68,5.69,125.8,-9999.0,'1111122,1111122,1111122' 
DISL,ioos:station:DISL:DISL:1,2008-03-03T07:30:00Z,30.2513,-88.0778,9.68,5.1,125.8,-9999.0,'1111122,1111122,1111122' 
DISL,ioos:station:DISL:DISL:1,2008-03-03T08:00:00Z,30.2513,-88.0778,9.68,4.83,131.3,-9999.0,'1111122,1111122,1111122' 
DISL,ioos:station:DISL:DISL:1,2008-03-03T08:30:00Z,30.2513,-88.0778,9.68,4.91,131.7,-9999.0,'1111122,1111122,1111122' 
DISL,ioos:station:DISL:DISL:1,2008-03-03T09:00:00Z,30.2513,-88.0778,9.68,3.69,143.9,-9999.0,'1111122,1111122,1111122' 
DISL,ioos:station:DISL:DISL:1,2008-03-03T09:30:00Z,30.2513,-88.0778,9.68,3.93,134.5,-9999.0,'1111122,1111122,1111122' 
DISL,ioos:station:DISL:DISL:1,2008-03-03T10:00:00Z,30.2513,-88.0778,9.68,4.17,137.8,-9999.0,'1111122,1111122,1111122' 
DISL,ioos:station:DISL:DISL:1,2008-03-03T10:30:00Z,30.2513,-88.0778,9.68,4.09,135.8,-9999.0,'1111122,1111122,1111122' 
DISL,ioos:station:DISL:DISL:1,2008-03-03T11:00:00Z,30.2513,-88.0778,9.68,4.75,134.2,-9999.0,'1111122,1111122,1111122' 
DISL,ioos:station:DISL:DISL:1,2008-03-03T11:30:00Z,30.2513,-88.0778,9.68,5.11,133.4,-9999.0,'1111122,1111122,1111122' 
DISL,ioos:station:DISL:DISL:1,2008-03-03T12:00:00Z,30.2513,-88.0778,9.68,5.76,137.5,-9999.0,'1111122,1111122,1111122' 
DISL,ioos:station:DISL:DISL:1,2008-03-03T12:30:00Z,30.2513,-88.0778,9.68,5.26,138.7,-9999.0,'1111122,1111122,1111122' 
DISL,ioos:station:DISL:DISL:1,2008-03-03T13:00:00Z,30.2513,-88.0778,9.68,4.79,132.2,-9999.0,'1111122,1111122,1111122' 
DISL,ioos:station:DISL:DISL:1,2008-03-03T13:30:00Z,30.2513,-88.0778,9.68,5.18,139.4,-9999.0,'1111122,1111122,1111122' 
DISL,ioos:station:DISL:DISL:1,2008-03-03T14:00:00Z,30.2513,-88.0778,9.68,5.69,126.9,-9999.0,'1111122,1111122,1111122' 
DISL,ioos:station:DISL:DISL:1,2008-03-03T14:30:00Z,30.2513,-88.0778,9.68,5.41,128.2,-9999.0,'1111122,1111122,1111122' 
DISL,ioos:station:DISL:DISL:1,2008-03-03T15:00:00Z,30.2513,-88.0778,9.68,5.35,131.8,-9999.0,'1111122,1111122,1111122' 
DISL,ioos:station:DISL:DISL:1,2008-03-03T15:30:00Z,30.2513,-88.0778,9.68,4.7,123.9,-9999.0,'1111122,1111122,1111122' 
DISL,ioos:station:DISL:DISL:1,2008-03-03T16:00:00Z,30.2513,-88.0778,9.68,5.0,125.4,-9999.0,'1111122,1111122,1111122' 
DISL,ioos:station:DISL:DISL:1,2008-03-03T16:30:00Z,30.2513,-88.0778,9.68,6.58,133.0,-9999.0,'1111122,1111122,1111122' 
DISL,ioos:station:DISL:DISL:1,2008-03-03T17:00:00Z,30.2513,-88.0778,9.68,6.45,130.8,-9999.0,'1111122,1111122,1111122' 
DISL,ioos:station:DISL:DISL:1,2008-03-03T17:30:00Z,30.2513,-88.0778,9.68,7.32,126.3,-9999.0,'1111122,1111122,1111122' 
DISL,ioos:station:DISL:DISL:1,2008-03-03T18:00:00Z,30.2513,-88.0778,9.68,7.17,127.7,-9999.0,'1111122,1111122,1111122' 
DISL,ioos:station:DISL:DISL:1,2008-03-03T18:30:00Z,30.2513,-88.0778,9.68,7.57,132.5,-9999.0,'1111122,1111122,1111122' 
DISL,ioos:station:DISL:DISL:1,2008-03-03T19:00:00Z,30.2513,-88.0778,9.68,7.48,130.5,-9999.0,'1111122,1111122,1111122' 
DISL,ioos:station:DISL:DISL:1,2008-03-03T19:30:00Z,30.2513,-88.0778,9.68,7.05,127.8,-9999.0,'1111122,1111122,1111122' 
DISL,ioos:station:DISL:DISL:1,2008-03-03T20:00:00Z,30.2513,-88.0778,9.68,7.0,127.6,-9999.0,'1111122,1111122,1111122' 
DISL,ioos:station:DISL:DISL:1,2008-03-03T20:30:00Z,30.2513,-88.0778,9.68,7.14,126.0,-9999.0,'1111122,1111122,1111122' 
DISL,ioos:station:DISL:DISL:1,2008-03-03T21:00:00Z,30.2513,-88.0778,9.68,7.96,126.6,-9999.0,'1111122,1111122,1111122' 
DISL,ioos:station:DISL:DISL:1,2008-03-03T21:30:00Z,30.2513,-88.0778,9.68,8.45,127.7,-9999.0,'1111122,1111122,1111122' 
DISL,ioos:station:DISL:DISL:1,2008-03-03T22:00:00Z,30.2513,-88.0778,9.68,8.77,124.6,-9999.0,'1111122,1111122,1111122' 
DISL,ioos:station:DISL:DISL:1,2008-03-03T22:30:00Z,30.2513,-88.0778,9.68,9.06,131.0,-9999.0,'1111122,1111122,1111122' 
DISL,ioos:station:DISL:DISL:1,2008-03-03T23:00:00Z,30.2513,-88.0778,9.68,8.94,132.2,-9999.0,'1111122,1111122,1111122' 
DISL,ioos:station:DISL:DISL:1,2008-03-03T23:30:00Z,30.2513,-88.0778,9.68,8.36,134.6,-9999.0,'1111122,1111122,1111122' 
DISL,ioos:station:DISL:DISL:1,2008-03-04T00:00:00Z,30.2513,-88.0778,9.68,7.49,141.1,-9999.0,'1111122,1111122,1111122' 
DISL,ioos:station:DISL:DISL:1,2008-03-04T00:30:00Z,30.2513,-88.0778,9.68,7.81,141.5,-9999.0,'1111122,1111122,1111122' 
DISL,ioos:station:DISL:DISL:1,2008-03-04T01:00:00Z,30.2513,-88.0778,9.68,7.38,144.5,-9999.0,'1111122,1111122,1111122' 
DISL,ioos:station:DISL:DISL:1,2008-03-04T01:30:00Z,30.2513,-88.0778,9.68,8.8,138.5,-9999.0,'1111122,1111122,1111122' 
DISL,ioos:station:DISL:DISL:1,2008-03-04T02:00:00Z,30.2513,-88.0778,9.68,9.5,143.1,-9999.0,'1111122,1111122,1111122' 
DISL,ioos:station:DISL:DISL:1,2008-03-04T02:30:00Z,30.2513,-88.0778,9.68,8.67,141.9,-9999.0,'1111122,1111122,1111122' 
DISL,ioos:station:DISL:DISL:1,2008-03-04T03:00:00Z,30.2513,-88.0778,9.68,9.92,142.5,-9999.0,'1111122,1111122,1111122' 
DISL,ioos:station:DISL:DISL:1,2008-03-04T03:30:00Z,30.2513,-88.0778,9.68,9.16,157.6,-9999.0,'1111122,1111122,1111122' 
DISL,ioos:station:DISL:DISL:1,2008-03-04T04:00:00Z,30.2513,-88.0778,9.68,7.85,147.5,-9999.0,'1111122,1111122,1111122' 
DISL,ioos:station:DISL:DISL:1,2008-03-04T04:30:00Z,30.2513,-88.0778,9.68,7.46,156.5,-9999.0,'1111122,1111122,1111122' 
DISL,ioos:station:DISL:DISL:1,2008-03-04T05:00:00Z,30.2513,-88.0778,9.68,8.02,153.2,-9999.0,'1111122,1111122,1111122' 
DISL,ioos:station:DISL:DISL:1,2008-03-04T05:30:00Z,30.2513,-88.0778,9.68,8.54,155.7,-9999.0,'1111122,1111122,1111122' 
DISL,ioos:station:DISL:DISL:1,2008-03-04T06:00:00Z,30.2513,-88.0778,9.68,8.38,159.8,-9999.0,'1111122,1111122,1111122' 
DISL,ioos:station:DISL:DISL:1,2008-03-04T06:30:00Z,30.2513,-88.0778,9.68,8.27,161.8,-9999.0,'1111122,1111122,1111122' 
DISL,ioos:station:DISL:DISL:1,2008-03-04T07:00:00Z,30.2513,-88.0778,9.68,8.74,169.3,-9999.0,'1111122,1111122,1111122' 
DISL,ioos:station:DISL:DISL:1,2008-03-04T07:30:00Z,30.2513,-88.0778,9.68,7.04,155.5,-9999.0,'1111122,1111122,1111122' 
DISL,ioos:station:DISL:DISL:1,2008-03-04T08:00:00Z,30.2513,-88.0778,9.68,8.69,160.8,-9999.0,'1111122,1111122,1111122' 
DISL,ioos:station:DISL:DISL:1,2008-03-04T08:30:00Z,30.2513,-88.0778,9.68,8.56,160.4,-9999.0,'1111122,1111122,1111122' 
DISL,ioos:station:DISL:DISL:1,2008-03-04T09:00:00Z,30.2513,-88.0778,9.68,5.99,164.5,-9999.0,'1111122,1111122,1111122' 
DISL,ioos:station:DISL:DISL:1,2008-03-04T09:30:00Z,30.2513,-88.0778,9.68,4.03,236.6,-9999.0,'1111122,1111122,1111122' 
DISL,ioos:station:DISL:DISL:1,2008-03-04T10:00:00Z,30.2513,-88.0778,9.68,2.49,259.1,-9999.0,'1111122,1111122,1111122' 
DISL,ioos:station:DISL:DISL:1,2008-03-04T10:30:00Z,30.2513,-88.0778,9.68,2.84,246.7,-9999.0,'1111122,1111122,1111122' 
DISL,ioos:station:DISL:DISL:1,2008-03-04T11:00:00Z,30.2513,-88.0778,9.68,2.91,249.1,-9999.0,'1111122,1111122,1111122' 
DISL,ioos:station:DISL:DISL:1,2008-03-04T11:30:00Z,30.2513,-88.0778,9.68,7.11,281.5,-9999.0,'1111122,1111122,1111122' 
DISL,ioos:station:DISL:DISL:1,2008-03-04T12:00:00Z,30.2513,-88.0778,9.68,5.55,282.3,-9999.0,'1111122,1111122,1111122' 
DISL,ioos:station:DISL:DISL:1,2008-03-04T12:30:00Z,30.2513,-88.0778,9.68,5.3,269.6,-9999.0,'1111122,1111122,1111122' 
DISL,ioos:station:DISL:DISL:1,2008-03-04T13:00:00Z,30.2513,-88.0778,9.68,4.82,269.1,-9999.0,'1111122,1111122,1111122' 
DISL,ioos:station:DISL:DISL:1,2008-03-04T13:30:00Z,30.2513,-88.0778,9.68,5.06,269.9,-9999.0,'1111122,1111122,1111122' 
DISL,ioos:station:DISL:DISL:1,2008-03-04T14:00:00Z,30.2513,-88.0778,9.68,5.03,267.2,-9999.0,'1111122,1111122,1111122' 
DISL,ioos:station:DISL:DISL:1,2008-03-04T14:30:00Z,30.2513,-88.0778,9.68,5.0,258.0,-9999.0,'1111122,1111122,1111122' 
DISL,ioos:station:DISL:DISL:1,2008-03-04T15:00:00Z,30.2513,-88.0778,9.68,6.08,265.4,-9999.0,'1111122,1111122,1111122' 
DISL,ioos:station:DISL:DISL:1,2008-03-04T15:30:00Z,30.2513,-88.0778,9.68,6.23,268.8,-9999.0,'1111122,1111122,1111122' 
DISL,ioos:station:DISL:DISL:1,2008-03-04T16:00:00Z,30.2513,-88.0778,9.68,6.6,272.8,-9999.0,'1111122,1111122,1111122' 
DISL,ioos:station:DISL:DISL:1,2008-03-04T16:30:00Z,30.2513,-88.0778,9.68,5.3,261.0,-9999.0,'1111122,1111122,1111122' 
DISL,ioos:station:DISL:DISL:1,2008-03-04T17:00:00Z,30.2513,-88.0778,9.68,6.04,266.5,-9999.0,'1111122,1111122,1111122' 
DISL,ioos:station:DISL:DISL:1,2008-03-04T17:30:00Z,30.2513,-88.0778,9.68,7.15,262.1,-9999.0,'1111122,1111122,1111122' 
DISL,ioos:station:DISL:DISL:1,2008-03-04T18:00:00Z,30.2513,-88.0778,9.68,6.24,267.9,-9999.0,'1111122,1111122,1111122' 
DISL,ioos:station:DISL:DISL:1,2008-03-04T18:30:00Z,30.2513,-88.0778,9.68,5.53,247.8,-9999.0,'1111122,1111122,1111122' 
DISL,ioos:station:DISL:DISL:1,2008-03-04T19:00:00Z,30.2513,-88.0778,9.68,6.24,256.6,-9999.0,'1111122,1111122,1111122' 
DISL,ioos:station:DISL:DISL:1,2008-03-04T19:30:00Z,30.2513,-88.0778,9.68,5.75,256.9,-9999.0,'1111122,1111122,1111122' 
DISL,ioos:station:DISL:DISL:1,2008-03-04T20:00:00Z,30.2513,-88.0778,9.68,5.91,263.6,-9999.0,'1111122,1111122,1111122' 
DISL,ioos:station:DISL:DISL:1,2008-03-04T20:30:00Z,30.2513,-88.0778,9.68,5.26,256.5,-9999.0,'1111122,1111122,1111122' 
DISL,ioos:station:DISL:DISL:1,2008-03-04T21:00:00Z,30.2513,-88.0778,9.68,6.32,272.9,-9999.0,'1111122,1111122,1111122' 
DISL,ioos:station:DISL:DISL:1,2008-03-04T21:30:00Z,30.2513,-88.0778,9.68,6.4,283.0,-9999.0,'1111122,1111122,1111122' 
DISL,ioos:station:DISL:DISL:1,2008-03-04T22:00:00Z,30.2513,-88.0778,9.68,6.68,284.3,-9999.0,'1111122,1111122,1111122' 
DISL,ioos:station:DISL:DISL:1,2008-03-04T22:30:00Z,30.2513,-88.0778,9.68,6.28,282.8,-9999.0,'1111122,1111122,1111122' 
DISL,ioos:station:DISL:DISL:1,2008-03-04T23:00:00Z,30.2513,-88.0778,9.68,6.09,286.8,-9999.0,'1111122,1111122,1111122' 
DISL,ioos:station:DISL:DISL:1,2008-03-04T23:30:00Z,30.2513,-88.0778,9.68,5.87,276.8,-9999.0,'1111122,1111122,1111122' 
DISL,ioos:station:DISL:DISL:1,2008-03-05T00:00:00Z,30.2513,-88.0778,9.68,6.7,287.1,-9999.0,'1111122,1111122,1111122' 
DISL,ioos:station:DISL:DISL:1,2008-03-05T00:30:00Z,30.2513,-88.0778,9.68,7.27,309.1,-9999.0,'1111122,1111122,1111122' 
DISL,ioos:station:DISL:DISL:1,2008-03-05T01:00:00Z,30.2513,-88.0778,9.68,7.5,302.5,-9999.0,'1111122,1111122,1111122' 
DISL,ioos:station:DISL:DISL:1,2008-03-05T01:30:00Z,30.2513,-88.0778,9.68,8.93,321.5,-9999.0,'1111122,1111122,1111122' 
DISL,ioos:station:DISL:DISL:1,2008-03-05T02:00:00Z,30.2513,-88.0778,9.68,8.77,322.0,-9999.0,'1111122,1111122,1111122' 
DISL,ioos:station:DISL:DISL:1,2008-03-05T02:30:00Z,30.2513,-88.0778,9.68,8.52,315.0,-9999.0,'1111122,1111122,1111122' 
DISL,ioos:station:DISL:DISL:1,2008-03-05T03:00:00Z,30.2513,-88.0778,9.68,8.24,323.2,-9999.0,'1111122,1111122,1111122' 
DISL,ioos:station:DISL:DISL:1,2008-03-05T03:30:00Z,30.2513,-88.0778,9.68,6.37,322.9,-9999.0,'1111122,1111122,1111122' 
DISL,ioos:station:DISL:DISL:1,2008-03-05T04:00:00Z,30.2513,-88.0778,9.68,6.36,316.7,-9999.0,'1111122,1111122,1111122' 